User: anonymous   Login
Location: Bojarzin Observatory
(39.7980°N, 89.7627°W)
Time: 01:50:33
(UTC-05:00)
Language:

ISS - Orbit

View from above orbital plane
View from above orbital plane
View from above satellite
View from above satellite

Ground track
Ground track

The orbit data is extracted from the following two-line orbital elements,

1 25544U 98067A   16272.50677814  .00016717  00000-0  10270-3 0  9025
2 25544  51.6393 262.6471 0006793  14.5438 345.5909 15.53952373 21053
Epoch (UTC): 28 September 2016 12:09:45
Eccentricity: 0.0006793
inclination: 51.6393°
perigee height: 400 km
apogee height: 410 km
right ascension of ascending node: 262.6471°
argument of perigee: 14.5438°
revolutions per day: 15.53952373
mean anomaly at epoch: 345.5909°
orbit number at epoch: 2105

The dashed part of the orbit path shows where the satellite is in the earth's shadow,  

DLR